Flag for Russia Weather past 2 weeks in Khanty-Mansiysk, Russia

Now
48 °F

Partly sunny.


Feels Like: 48 °F
Forecast: 45 / 54 °F
Wind: 1 mph from West

Location: Hanty-Mansijsk

Current Time: Aug 29, 2015 at 8:11:07 AM

Latest Report: Aug 29, 2015 at 7:30 AM


Visibility: N/A

Pressure: 29.71 "Hg

Humidity: 94%

Dew point: 46 °F

Location of Khanty-MansiyskLocation

Historic Weather in Khanty-Mansiysk — Graph

°F

Khanty-Mansiysk temperature yesterday

Maximum temperature yesterday: 55 °F (at 11:30 AM)
Minimum temperature yesterday: 39 °F (at 3:00 AM)
Average temperature yesterday: 48 °F

Past Weeks' High & Low Weather Summary

 TemperatureHumidityPressure
High72 °F (Aug 15, 3:30 PM)100% (Aug 26, 4:30 AM)30.04 "Hg (Aug 26, 4:30 AM)
Low37 °F (Aug 26, 2:30 AM)16% (Aug 17, 3:00 PM)29.53 "Hg (Aug 23, 1:00 AM)
Average51 °F77%29.77 "Hg
* Reported Aug 14 7:00 AM — Aug 29 7:00 AM, Khanty-Mansiysk, Weather by CustomWeather, © 2015

Note: Actual official high and low records may vary slightly from our data, if they occured in-between our weather recording intervals... More about our weather records

Advertising

Khanty-Mansiysk weather history for previous 24 hours

 ConditionsComfort  
Time TempWeatherWind HumidityBarometerVisibility
7:00 AM
Sat, Aug 29
48 °FPartly sunny.No wind94%29.71 "HgN/A
6:30 AM48 °FPartly sunny.No wind94%29.71 "Hg4 mi
6:00 AM48 °FPassing clouds.No wind94%29.71 "HgN/A
5:30 AM48 °FPassing clouds.1 mph94%29.71 "Hg6 mi
5:00 AM48 °FPassing clouds.3 mph94%29.71 "HgN/A
4:30 AM50 °FPassing clouds.1 mph88%29.71 "Hg5 mi
4:00 AM48 °FPassing clouds.1 mph94%29.74 "Hg4 mi
3:30 AM48 °FPassing clouds.3 mph94%29.74 "Hg5 mi
3:00 AM48 °FPassing clouds.1 mph94%29.74 "Hg6 mi
2:30 AM48 °FPassing clouds.3 mph94%29.74 "HgN/A
2:00 AM48 °FPassing clouds.3 mph94%29.74 "HgN/A
1:30 AM48 °FPassing clouds.3 mph94%29.74 "HgN/A
1:00 AM48 °FPassing clouds.1 mph87%29.77 "HgN/A
12:30 AM46 °FPassing clouds.No wind93%29.77 "HgN/A
12:00 AM46 °FPassing clouds.3 mph93%29.77 "HgN/A
11:30 PM
Fri, Aug 28
46 °FPassing clouds.3 mph93%29.77 "HgN/A
11:00 PM46 °FPassing clouds.3 mph93%29.80 "HgN/A
10:30 PM46 °FPassing clouds.3 mph93%29.80 "HgN/A
10:00 PM46 °FPassing clouds.3 mph93%29.80 "HgN/A
9:30 PM46 °FPassing clouds.3 mph93%29.80 "HgN/A
9:00 PM48 °FPassing clouds.6 mph87%29.80 "HgN/A
8:30 PM48 °FScattered clouds.6 mph87%29.80 "HgN/A
8:00 PM50 °FScattered clouds.6 mph82%29.83 "HgN/A
7:30 PM50 °FScattered clouds.6 mph82%29.83 "HgN/A
7:00 PM50 °FScattered clouds.6 mph82%29.83 "HgN/A
6:30 PM52 °FScattered clouds.6 mph77%29.83 "HgN/A
6:00 PM52 °FScattered clouds.6 mph77%29.83 "HgN/A
5:00 PM55 °FScattered clouds.6 mph72%29.83 "HgN/A
4:30 PM54 °FScattered clouds.8 mph77%29.83 "HgN/A
4:00 PM52 °FScattered clouds.6 mph82%29.83 "HgN/A
3:30 PM50 °FSprinkles. Scattered clouds.8 mph82%29.86 "HgN/A
3:00 PM54 °FScattered clouds.3 mph72%29.86 "HgN/A
2:30 PM55 °FScattered clouds.6 mph67%29.86 "HgN/A
2:00 PM52 °FScattered clouds.3 mph88%29.86 "HgN/A
1:30 PM50 °FLight rain. Scattered clouds.6 mph88%29.86 "HgN/A
1:00 PM54 °FSunny.6 mph67%29.86 "Hg10 mi
12:30 PM55 °FSunny.8 mph63%29.86 "Hg10 mi
12:00 PM55 °FPassing clouds.6 mph63%29.89 "HgN/A
11:30 AM55 °FPassing clouds.6 mph63%29.89 "HgN/A
11:00 AM54 °FSunny.6 mph67%29.89 "Hg10 mi
10:30 AM54 °FSunny.6 mph67%29.89 "Hg10 mi
10:00 AM52 °FPassing clouds.3 mph77%29.89 "HgN/A
9:30 AM50 °FSunny.3 mph82%29.89 "Hg10 mi
9:00 AM52 °FSunny.3 mph77%29.89 "Hg10 mi
8:30 AM50 °FSunny.3 mph82%29.89 "Hg10 mi
8:00 AM48 °FSunny.1 mph87%29.89 "Hg10 mi
Weather by CustomWeather, © 2015

See weather overviewHow to use our weather pages